2018-094D (43713 NORAD) Tracking and Keplerian Element Data

This shows tracking and keplerian element data for the satellite.

Feedback or suggestion? Click here.




ElementValue
Catalog43713
Name2018-094D
Epoch Orbit439
Epoch Day352.88658833
Epoch Year2018
RAAN357.3902
Inclination97.4073
Eccentricity0.0014638
Argument of Perigee161.1832
Mean Anonmoly315.7815
Mean Motion15.23415507
Decay Rate3.24E-06
L11 43713U 18094D 18352.88658833 .00000324 00000-0 16545-4 0 9992
L22 43713 97.4073 357.3902 0014638 161.1832 315.7815 15.23415507 4392

Live tracking and technical data element details for 2018-094D (NORAD 43713). 2018-094D can be tracked NOW for your location showing map with azimuth and elevation plus other details from your city location.

Track the satellite on the map from your city or location and see movement details for azimuth, elevation, latitude, longitude, range, height, and movement on the map or in text.







IsCatalogInMostPopularTable: catalog: 43713, numindb: 32
Update: records affected: 1



GetName: 43713 2018-094D

Hit Count: updated at: Wed, 23 Jan 2019 02:56:47 GMT